Location: Asheville, NC
(35.6000°N, 82.5500°W)
Time: 00:37:13
(UTC-04:00)

CUBEBUG 2 - Pass Details

Date: 11 March 2018
Orbit: 586 x 699 km, 97.6° (Epoch: 18 June)

Event Time Altitude Azimuth Distance (km) Brightness Sun altitude
Rises 21:00:45 0° 208° (SSW) 3,030 ? -18.3°
Reaches altitude 10° 21:03:53 10° 231° (SW) 2,102 ? -18.9°
Maximum altitude 21:06:34 15° 267° (W) 1,755 ? -19.5°
Drops below altitude 10° 21:09:14 10° 303° (WNW) 2,072 ? -20.0°
Sets 21:12:18 0° 326° (NW) 2,963 ? -20.6°
